FIN46J LFLL-EKCH

Flight info

Callsign FIN46J
Flight time 1h 38m
Altitude 36000
Route RISOR T45 SOSAL N871 KORED DCT BERSU DCT DITON DCT LOKTA DCT TEDGO DCT HAREM DCT LOHRE DCT BERXO DCT MAKEL N851 GESKA Z711 MONAK
Aircraft A321/M-SDE3FGHIRWY/LB1

Departure

Time 2026-05-06 03:43
Airport Lyon Saint-Exupéry Airport (LFLL)

Arrival

Time 2026-05-06 05:21
Airport Copenhagen Kastrup Airport (EKCH)
Time Latitude Longitude Altitude Speed Heading
2026-05-06 03:38 45.72910 5.08344 790 ft 15 kts 355°
2026-05-06 03:39 45.73010 5.08333 788 ft 15 kts 355°
2026-05-06 03:39 45.73111 5.08321 786 ft 15 kts 355°
2026-05-06 03:39 45.73209 5.08310 785 ft 14 kts 355°
2026-05-06 03:39 45.73305 5.08298 783 ft 14 kts 355°
2026-05-06 03:40 45.73404 5.08286 780 ft 15 kts 355°
2026-05-06 03:40 45.73509 5.08273 780 ft 15 kts 355°
2026-05-06 03:40 45.73607 5.08261 780 ft 14 kts 355°
2026-05-06 03:40 45.73698 5.08276 777 ft 14 kts 34°
2026-05-06 03:41 45.73727 5.08392 777 ft 12 kts 94°
2026-05-06 03:41 45.73708 5.08511 777 ft 14 kts 104°
2026-05-06 03:41 45.73679 5.08663 777 ft 16 kts 107°
2026-05-06 03:41 45.73631 5.08726 779 ft 6 kts 179°
2026-05-06 03:42 45.73620 5.08726 779 ft 6 kts 179°
2026-05-06 03:42 45.73435 5.08747 783 ft 60 kts 175°
2026-05-06 03:42 45.72784 5.08827 791 ft 126 kts 175°
2026-05-06 03:42 45.71738 5.08950 925 ft 167 kts 175°
2026-05-06 03:43 45.70602 5.09073 1735 ft 164 kts 176°
2026-05-06 03:43 45.69390 5.09221 2038 ft 190 kts 176°
2026-05-06 03:43 45.68032 5.09399 2330 ft 205 kts 176°
2026-05-06 03:43 45.66580 5.09578 2780 ft 214 kts 176°
2026-05-06 03:44 45.65080 5.09752 3433 ft 216 kts 177°
2026-05-06 03:44 45.63595 5.09926 4227 ft 213 kts 176°
2026-05-06 03:44 45.62118 5.10236 4879 ft 218 kts 160°
2026-05-06 03:44 45.60983 5.11660 5508 ft 226 kts 120°
2026-05-06 03:45 45.60739 5.13878 6203 ft 233 kts 86°
2026-05-06 03:45 45.60951 5.16178 6829 ft 234 kts 91°
2026-05-06 03:45 45.60721 5.18456 7456 ft 231 kts 107°
2026-05-06 03:45 45.60306 5.20708 7838 ft 245 kts 109°
2026-05-06 03:46 45.59791 5.23139 8091 ft 268 kts 110°
2026-05-06 03:46 45.59207 5.25741 8584 ft 280 kts 111°
2026-05-06 03:46 45.58597 5.28405 9324 ft 285 kts 111°
2026-05-06 03:46 45.58176 5.31192 10020 ft 293 kts 94°
2026-05-06 03:47 45.58485 5.34184 10278 ft 319 kts 76°
2026-05-06 03:47 45.59133 5.37334 10440 ft 343 kts 75°
2026-05-06 03:47 45.59847 5.40696 10577 ft 365 kts 75°
2026-05-06 03:47 45.60603 5.44210 11034 ft 374 kts 75°
2026-05-06 03:48 45.61361 5.47743 11658 ft 379 kts 75°
2026-05-06 03:48 45.62130 5.51358 12316 ft 383 kts 76°
2026-05-06 03:48 45.62901 5.55018 12937 ft 387 kts 76°
2026-05-06 03:48 45.63673 5.58727 13580 ft 392 kts 76°
2026-05-06 03:49 45.64450 5.62484 14153 ft 396 kts 76°
2026-05-06 03:49 45.65231 5.66278 14765 ft 400 kts 76°
2026-05-06 03:49 45.66019 5.70107 15385 ft 404 kts 76°
2026-05-06 03:49 45.66815 5.73978 15994 ft 407 kts 76°
2026-05-06 03:50 45.67604 5.77825 16609 ft 411 kts 76°
2026-05-06 03:50 45.68411 5.81759 17201 ft 414 kts 76°
2026-05-06 03:50 45.69225 5.85734 17794 ft 418 kts 76°
2026-05-06 03:50 45.70044 5.89738 18361 ft 421 kts 76°
2026-05-06 03:51 45.70863 5.93753 18954 ft 421 kts 76°
2026-05-06 03:51 45.71996 5.97636 19469 ft 428 kts 62°
2026-05-06 03:51 45.73868 6.00995 19930 ft 436 kts 47°
2026-05-06 03:51 45.76033 6.04053 20411 ft 439 kts 47°
2026-05-06 03:52 45.78208 6.07135 20871 ft 442 kts 47°
2026-05-06 03:52 45.80369 6.10217 21319 ft 445 kts 47°
2026-05-06 03:52 45.82568 6.13369 21794 ft 448 kts 47°
2026-05-06 03:52 45.84774 6.16532 22260 ft 451 kts 47°
2026-05-06 03:53 45.86999 6.19727 22703 ft 454 kts 47°
2026-05-06 03:53 45.89243 6.22950 23157 ft 457 kts 47°
2026-05-06 03:53 45.91498 6.26188 23578 ft 460 kts 48°
2026-05-06 03:53 45.93767 6.29449 23946 ft 463 kts 48°
2026-05-06 03:54 45.96050 6.32732 24301 ft 466 kts 48°
2026-05-06 03:54 45.98354 6.36051 24539 ft 472 kts 47°
2026-05-06 03:54 46.00656 6.39372 24830 ft 477 kts 48°
2026-05-06 03:54 46.03000 6.42758 25229 ft 478 kts 48°
2026-05-06 03:55 46.05368 6.46139 25574 ft 482 kts 46°
2026-05-06 03:55 46.07847 6.49416 25915 ft 486 kts 44°
2026-05-06 03:55 46.10430 6.52588 26220 ft 490 kts 42°
2026-05-06 03:55 46.13082 6.55706 26553 ft 494 kts 41°
2026-05-06 03:56 46.15764 6.58828 26888 ft 497 kts 42°
2026-05-06 03:56 46.18447 6.61987 27230 ft 500 kts 42°
2026-05-06 03:56 46.21098 6.65175 27539 ft 503 kts 43°
2026-05-06 03:56 46.23763 6.68446 27950 ft 504 kts 43°
2026-05-06 03:57 46.26424 6.71751 28423 ft 504 kts 44°
2026-05-06 03:57 46.29077 6.75065 28838 ft 505 kts 44°
2026-05-06 03:57 46.31730 6.78377 29290 ft 505 kts 44°
2026-05-06 03:57 46.34404 6.81698 29743 ft 506 kts 44°
2026-05-06 03:58 46.37077 6.85010 30093 ft 507 kts 43°
2026-05-06 03:58 46.39761 6.88330 30428 ft 509 kts 43°
2026-05-06 03:58 46.42459 6.91673 30743 ft 510 kts 43°
2026-05-06 03:58 46.45116 6.94975 31112 ft 510 kts 42°
2026-05-06 03:59 46.47804 6.98322 31524 ft 509 kts 42°
2026-05-06 03:59 46.50486 7.01669 31921 ft 508 kts 42°
2026-05-06 03:59 46.53163 7.05014 32344 ft 507 kts 41°
2026-05-06 03:59 46.55831 7.08351 32735 ft 506 kts 41°
2026-05-06 04:00 46.58501 7.11693 33113 ft 506 kts 41°
2026-05-06 04:00 46.61162 7.15025 33524 ft 504 kts 41°
2026-05-06 04:00 46.63817 7.18354 33899 ft 504 kts 40°
2026-05-06 04:00 46.66431 7.21638 34208 ft 503 kts 41°
2026-05-06 04:01 46.69074 7.24967 34538 ft 502 kts 41°
2026-05-06 04:01 46.71710 7.28290 34861 ft 500 kts 41°
2026-05-06 04:01 46.74333 7.31605 35194 ft 499 kts 41°
2026-05-06 04:01 46.76944 7.34913 35544 ft 496 kts 41°
2026-05-06 04:02 46.79550 7.38213 35781 ft 497 kts 41°
2026-05-06 04:02 46.82163 7.41519 35840 ft 498 kts 41°
2026-05-06 04:02 46.87400 7.48153 35838 ft 498 kts 41°
2026-05-06 04:03 46.92594 7.54760 35877 ft 498 kts 41°
2026-05-06 04:03 46.97805 7.61438 35875 ft 497 kts 41°
2026-05-06 04:04 47.03004 7.68113 35877 ft 497 kts 41°
2026-05-06 04:04 47.08211 7.74789 35880 ft 497 kts 41°
2026-05-06 04:05 47.13412 7.81478 35891 ft 497 kts 41°
2026-05-06 04:05 47.18574 7.88137 35892 ft 497 kts 41°
2026-05-06 04:06 47.23768 7.94849 35886 ft 497 kts 41°
2026-05-06 04:06 47.28951 8.01580 35878 ft 497 kts 41°
2026-05-06 04:07 47.34202 8.08184 35883 ft 496 kts 33°
2026-05-06 04:07 47.37201 8.10502 35884 ft 493 kts 19°
2026-05-06 04:07 47.40403 8.12307 35881 ft 493 kts 19°
2026-05-06 04:08 47.46822 8.15880 35876 ft 493 kts 19°
2026-05-06 04:08 47.53250 8.19461 35888 ft 494 kts 19°
2026-05-06 04:09 47.59675 8.23056 35881 ft 494 kts 19°
2026-05-06 04:09 47.66059 8.26639 35881 ft 494 kts 19°
2026-05-06 04:10 47.72493 8.30266 35885 ft 494 kts 19°
2026-05-06 04:10 47.78915 8.33898 35884 ft 494 kts 19°
2026-05-06 04:11 47.85328 8.37536 35883 ft 493 kts 19°
2026-05-06 04:11 47.91741 8.41169 35884 ft 493 kts 19°
2026-05-06 04:12 47.98110 8.44793 35882 ft 493 kts 19°
2026-05-06 04:12 48.04519 8.48459 35881 ft 493 kts 19°
2026-05-06 04:13 48.10919 8.52121 35877 ft 492 kts 19°
2026-05-06 04:13 48.17311 8.55788 35872 ft 492 kts 19°
2026-05-06 04:14 48.23659 8.59444 35860 ft 492 kts 19°
2026-05-06 04:14 48.30047 8.63128 35860 ft 492 kts 19°
2026-05-06 04:15 48.36446 8.66821 35865 ft 493 kts 19°
2026-05-06 04:15 48.42843 8.70531 35864 ft 493 kts 19°
2026-05-06 04:16 48.49241 8.74259 35865 ft 493 kts 19°
2026-05-06 04:16 48.55596 8.77963 35859 ft 493 kts 19°
2026-05-06 04:17 48.61993 8.81710 35855 ft 493 kts 19°
2026-05-06 04:17 48.68385 8.85456 35854 ft 493 kts 19°
2026-05-06 04:18 48.74776 8.89204 35856 ft 493 kts 19°
2026-05-06 04:18 48.81117 8.92947 35861 ft 492 kts 19°
2026-05-06 04:19 48.87484 8.96711 35861 ft 491 kts 19°
2026-05-06 04:19 48.93844 9.00465 35854 ft 490 kts 19°
2026-05-06 04:20 49.00193 9.04232 35858 ft 489 kts 20°
2026-05-06 04:20 49.06519 9.08012 35852 ft 488 kts 20°
2026-05-06 04:21 49.12793 9.11775 35846 ft 487 kts 20°
2026-05-06 04:21 49.19094 9.15561 35851 ft 487 kts 20°
2026-05-06 04:22 49.25398 9.19346 35833 ft 486 kts 20°
2026-05-06 04:23 49.34840 9.25025 35843 ft 486 kts 20°
2026-05-06 04:23 49.41089 9.28810 35848 ft 486 kts 20°
2026-05-06 04:24 49.47377 9.32632 35838 ft 486 kts 20°
2026-05-06 04:24 49.53656 9.36453 35835 ft 485 kts 20°
2026-05-06 04:25 49.59950 9.40235 35829 ft 485 kts 17°
2026-05-06 04:25 49.66490 9.42176 35833 ft 481 kts
2026-05-06 04:26 49.73155 9.43226 35827 ft 482 kts
2026-05-06 04:26 49.79817 9.44299 35818 ft 481 kts
2026-05-06 04:27 49.86475 9.45366 35818 ft 481 kts
2026-05-06 04:27 49.93080 9.46437 35814 ft 480 kts
2026-05-06 04:28 49.99727 9.47517 35813 ft 480 kts
2026-05-06 04:28 50.06362 9.48617 35810 ft 480 kts
2026-05-06 04:29 50.12911 9.50700 35809 ft 480 kts 11°
2026-05-06 04:29 50.19396 9.52879 35811 ft 480 kts 11°
2026-05-06 04:30 50.25930 9.55068 35802 ft 480 kts 11°
2026-05-06 04:30 50.32468 9.57264 35800 ft 480 kts 11°
2026-05-06 04:31 50.39002 9.59476 35799 ft 481 kts 11°
2026-05-06 04:31 50.45498 9.61673 35799 ft 480 kts 11°
2026-05-06 04:32 50.52029 9.63885 35802 ft 480 kts 12°
2026-05-06 04:32 50.58548 9.66112 35799 ft 479 kts 12°
2026-05-06 04:33 50.65050 9.68331 35792 ft 478 kts 12°
2026-05-06 04:33 50.71550 9.70553 35787 ft 478 kts 12°
2026-05-06 04:34 50.77997 9.72763 35790 ft 477 kts 12°
2026-05-06 04:34 50.84481 9.74992 35787 ft 477 kts 12°
2026-05-06 04:35 50.90967 9.77227 35786 ft 477 kts 12°
2026-05-06 04:35 50.97450 9.79467 35798 ft 476 kts 12°
2026-05-06 04:36 51.03879 9.81700 35790 ft 476 kts 12°
2026-05-06 04:36 51.10346 9.83960 35782 ft 476 kts 12°
2026-05-06 04:37 51.16816 9.86226 35779 ft 476 kts 12°
2026-05-06 04:37 51.23255 9.88622 35776 ft 475 kts 18°
2026-05-06 04:38 51.29461 9.92024 35775 ft 474 kts 19°
2026-05-06 04:38 51.35693 9.95473 35771 ft 474 kts 19°
2026-05-06 04:39 51.41927 9.98928 35768 ft 474 kts 20°
2026-05-06 04:39 51.48153 10.02388 35782 ft 474 kts 20°
2026-05-06 04:40 51.54377 10.05860 35782 ft 474 kts 20°
2026-05-06 04:40 51.60560 10.09314 35782 ft 473 kts 20°
2026-05-06 04:41 51.66782 10.12816 35781 ft 474 kts 20°
2026-05-06 04:41 51.73001 10.16317 35781 ft 474 kts 20°
2026-05-06 04:42 51.79228 10.19824 35787 ft 474 kts 20°
2026-05-06 04:42 51.85409 10.23313 35781 ft 474 kts 20°
2026-05-06 04:43 51.91637 10.26837 35787 ft 474 kts 20°
2026-05-06 04:43 51.97859 10.30372 35788 ft 474 kts 21°
2026-05-06 04:44 52.04081 10.33924 35781 ft 474 kts 20°
2026-05-06 04:44 52.10258 10.37468 35784 ft 474 kts 20°
2026-05-06 04:45 52.16481 10.41048 35792 ft 474 kts 21°
2026-05-06 04:45 52.22708 10.44628 35796 ft 475 kts 20°
2026-05-06 04:46 52.28931 10.48222 35798 ft 475 kts 21°
2026-05-06 04:46 52.35158 10.51832 35798 ft 474 kts 21°
2026-05-06 04:47 52.41336 10.55414 35799 ft 474 kts 21°
2026-05-06 04:47 52.47558 10.59033 35804 ft 474 kts 21°
2026-05-06 04:48 52.53769 10.62665 35812 ft 474 kts 21°
2026-05-06 04:48 52.59987 10.66315 35814 ft 475 kts 21°
2026-05-06 04:49 52.66123 10.70118 35822 ft 474 kts 23°
2026-05-06 04:49 52.72230 10.74262 35828 ft 474 kts 24°
2026-05-06 04:50 52.78324 10.78448 35827 ft 475 kts 24°
2026-05-06 04:50 52.84450 10.82569 35819 ft 475 kts 23°
2026-05-06 04:51 52.90545 10.86637 35831 ft 476 kts 24°
2026-05-06 04:51 52.96679 10.90767 35842 ft 476 kts 24°
2026-05-06 04:52 53.02816 10.94919 35843 ft 476 kts 24°
2026-05-06 04:52 53.08949 10.99070 35841 ft 476 kts 24°
2026-05-06 04:53 53.15043 11.03218 35848 ft 476 kts 24°
2026-05-06 04:53 53.21168 11.07408 35847 ft 476 kts 24°
2026-05-06 04:54 53.27301 11.11600 35848 ft 476 kts 24°
2026-05-06 04:54 53.33429 11.15799 35846 ft 476 kts 24°
2026-05-06 04:55 53.39519 11.19992 35843 ft 476 kts 24°
2026-05-06 04:55 53.45644 11.24220 35850 ft 476 kts 24°
2026-05-06 04:56 53.51769 11.28464 35850 ft 477 kts 24°
2026-05-06 04:56 53.57902 11.32722 35851 ft 477 kts 24°
2026-05-06 04:57 53.63990 11.36971 35851 ft 477 kts 24°
2026-05-06 04:57 53.70122 11.41269 35862 ft 477 kts 24°
2026-05-06 04:57 53.73183 11.43420 35642 ft 476 kts 24°
2026-05-06 04:58 53.76233 11.45564 35124 ft 474 kts 24°
2026-05-06 04:58 53.79284 11.47708 34580 ft 474 kts 25°
2026-05-06 04:58 53.82327 11.49851 34031 ft 474 kts 25°
2026-05-06 04:58 53.85377 11.52003 33175 ft 478 kts 25°
2026-05-06 04:59 53.88427 11.54159 32244 ft 484 kts 25°
2026-05-06 04:59 53.91539 11.56362 31563 ft 486 kts 24°
2026-05-06 04:59 53.94666 11.58579 30930 ft 488 kts 24°
2026-05-06 04:59 53.97808 11.60811 30303 ft 493 kts 23°
2026-05-06 05:00 54.00985 11.63066 29648 ft 495 kts 23°
2026-05-06 05:00 54.04163 11.65321 28939 ft 496 kts 23°
2026-05-06 05:00 54.07336 11.67579 28245 ft 492 kts 22°
2026-05-06 05:00 54.10477 11.69825 27550 ft 487 kts 23°
2026-05-06 05:01 54.13593 11.72062 26898 ft 483 kts 23°
2026-05-06 05:01 54.16672 11.74270 26246 ft 478 kts 23°
2026-05-06 05:01 54.19677 11.76430 25700 ft 472 kts 22°
2026-05-06 05:01 54.22679 11.78595 25145 ft 466 kts 22°
2026-05-06 05:02 54.25646 11.80742 24578 ft 461 kts 22°
2026-05-06 05:02 54.28582 11.82867 24038 ft 455 kts 22°
2026-05-06 05:02 54.31481 11.84962 23511 ft 450 kts 21°
2026-05-06 05:02 54.34348 11.87033 22938 ft 443 kts 21°
2026-05-06 05:03 54.37168 11.89074 22402 ft 437 kts 21°
2026-05-06 05:03 54.39949 11.91089 21868 ft 431 kts 22°
2026-05-06 05:03 54.42695 11.93083 21350 ft 426 kts 21°
2026-05-06 05:03 54.45378 11.95035 20845 ft 422 kts 21°
2026-05-06 05:04 54.48061 11.96992 20396 ft 417 kts 21°
2026-05-06 05:04 54.50722 11.98936 19951 ft 413 kts 21°
2026-05-06 05:04 54.53351 12.00861 19505 ft 409 kts 22°
2026-05-06 05:04 54.55952 12.02768 19060 ft 404 kts 22°
2026-05-06 05:05 54.58529 12.04660 18645 ft 400 kts 22°
2026-05-06 05:05 54.61074 12.06533 18222 ft 396 kts 22°
2026-05-06 05:05 54.62745 12.07765 17907 ft 394 kts 22°
2026-05-06 05:05 54.65258 12.09616 17422 ft 391 kts 22°
2026-05-06 05:06 54.68546 12.12039 16804 ft 385 kts 22°
2026-05-06 05:06 54.71000 12.13853 16333 ft 382 kts 22°
2026-05-06 05:06 54.73428 12.15649 15874 ft 377 kts 22°
2026-05-06 05:06 54.75829 12.17425 15445 ft 372 kts 21°
2026-05-06 05:07 54.78191 12.19174 15027 ft 367 kts 22°
2026-05-06 05:07 54.79737 12.20318 14750 ft 363 kts 21°
2026-05-06 05:07 54.82104 12.21681 14340 ft 355 kts
2026-05-06 05:07 54.84533 12.22286 13934 ft 351 kts
2026-05-06 05:08 54.87724 12.23023 13335 ft 347 kts
2026-05-06 05:08 54.90106 12.23566 12863 ft 344 kts
2026-05-06 05:08 54.91701 12.23932 12566 ft 341 kts
2026-05-06 05:08 54.94006 12.24466 12155 ft 337 kts
2026-05-06 05:09 54.96312 12.25007 11747 ft 333 kts
2026-05-06 05:09 54.98596 12.25548 11342 ft 329 kts
2026-05-06 05:09 55.00849 12.26083 10938 ft 325 kts
2026-05-06 05:09 55.03084 12.26612 10546 ft 322 kts
2026-05-06 05:10 55.05294 12.27130 10164 ft 319 kts
2026-05-06 05:10 55.08185 12.27808 9697 ft 314 kts
2026-05-06 05:10 55.09641 12.28151 9432 ft 311 kts
2026-05-06 05:10 55.11771 12.28653 9058 ft 307 kts
2026-05-06 05:11 55.13848 12.29146 8706 ft 303 kts
2026-05-06 05:11 55.15917 12.29637 8372 ft 298 kts
2026-05-06 05:11 55.17944 12.30116 8037 ft 288 kts
2026-05-06 05:11 55.19888 12.30573 7705 ft 276 kts
2026-05-06 05:12 55.21754 12.31018 7375 ft 266 kts
2026-05-06 05:12 55.23552 12.31449 7049 ft 256 kts
2026-05-06 05:12 55.25291 12.31869 6725 ft 248 kts
2026-05-06 05:12 55.26974 12.32271 6409 ft 240 kts
2026-05-06 05:13 55.28629 12.32668 6071 ft 240 kts
2026-05-06 05:13 55.30257 12.33060 5737 ft 239 kts
2026-05-06 05:13 55.31906 12.33453 5392 ft 239 kts
2026-05-06 05:13 55.33548 12.33843 5047 ft 235 kts
2026-05-06 05:14 55.35147 12.34222 4718 ft 231 kts
2026-05-06 05:14 55.36726 12.34600 4403 ft 226 kts 10°
2026-05-06 05:14 55.38267 12.34971 4104 ft 221 kts 10°
2026-05-06 05:14 55.39773 12.35333 3814 ft 215 kts 10°
2026-05-06 05:15 55.41219 12.35680 3526 ft 210 kts 10°
2026-05-06 05:15 55.42648 12.36028 3244 ft 205 kts 12°
2026-05-06 05:15 55.43927 12.36923 3040 ft 193 kts 36°
2026-05-06 05:15 55.44913 12.38383 3017 ft 180 kts 42°
2026-05-06 05:16 55.45844 12.39805 3023 ft 175 kts 41°
2026-05-06 05:16 55.46760 12.41205 3022 ft 174 kts 42°
2026-05-06 05:16 55.47675 12.42606 2997 ft 174 kts 42°
2026-05-06 05:16 55.48588 12.44003 2840 ft 173 kts 41°
2026-05-06 05:17 55.49486 12.45379 2628 ft 167 kts 41°
2026-05-06 05:17 55.50346 12.46698 2419 ft 161 kts 41°
2026-05-06 05:17 55.51172 12.47966 2193 ft 158 kts 41°
2026-05-06 05:17 55.51989 12.49220 1969 ft 152 kts 41°
2026-05-06 05:18 55.52749 12.50387 1790 ft 137 kts 42°
2026-05-06 05:18 55.53453 12.51469 1590 ft 132 kts 41°
2026-05-06 05:18 55.54141 12.52527 1408 ft 131 kts 41°
2026-05-06 05:18 55.54824 12.53580 1238 ft 131 kts 41°
2026-05-06 05:19 55.55497 12.54620 1070 ft 130 kts 41°
2026-05-06 05:19 55.56177 12.55663 859 ft 129 kts 41°
2026-05-06 05:19 55.56850 12.56705 698 ft 128 kts 40°
2026-05-06 05:19 55.57528 12.57742 527 ft 128 kts 40°
2026-05-06 05:20 55.58198 12.58777 333 ft 128 kts 40°
2026-05-06 05:20 55.58871 12.59809 150 ft 127 kts 39°
2026-05-06 05:20 55.59536 12.60829 34 ft 125 kts 41°
2026-05-06 05:20 55.60096 12.61700 29 ft 86 kts 41°
2026-05-06 05:21 55.60405 12.62169 24 ft 30 kts 38°
2026-05-06 05:21 55.60579 12.62318 27 ft 27 kts 17°
2026-05-06 05:21 55.60758 12.62390 24 ft 26 kts 16°
2026-05-06 05:21 55.60901 12.62570 24 ft 25 kts 40°
2026-05-06 05:22 55.61038 12.62776 25 ft 26 kts 41°
2026-05-06 05:22 55.61176 12.62990 24 ft 27 kts 41°
2026-05-06 05:22 55.61319 12.63210 24 ft 28 kts 41°
2026-05-06 05:22 55.61466 12.63436 24 ft 28 kts 41°
2026-05-06 05:23 55.61616 12.63669 24 ft 29 kts 41°
2026-05-06 05:23 55.61770 12.63907 24 ft 30 kts 41°
2026-05-06 05:23 55.62029 12.64201 26 ft 22 kts 24°
2026-05-06 05:24 55.62170 12.64318 24 ft 23 kts 25°
2026-05-06 05:24 55.62312 12.64411 23 ft 21 kts 15°
2026-05-06 05:24 55.62449 12.64475 24 ft 15 kts 14°
2026-05-06 05:24 55.62518 12.64426 24 ft 12 kts 305°
2026-05-06 05:25 55.62569 12.64287 24 ft 15 kts 302°
2026-05-06 05:25 55.62626 12.64133 24 ft 9 kts 302°
2026-05-06 05:25 55.62662 12.64124 24 ft 6 kts 22°
2026-05-06 05:25 55.62693 12.64155 26 ft 4 kts 32°
2026-05-06 05:26 55.62704 12.64168 25 ft 2 kts 33°
2026-05-06 05:26 55.62706 12.64170 26 ft 0 kts 34°